CKK226 KLAX-KSEA

Flight info

Callsign CKK226
Flight time N/A
Altitude 36000
Route LADYJ4 CSTRO SHIMR LKV HAWKZ8
Aircraft B77L/H-SDE1E2E3FGHIJ2J3J4J5M1RWXY/LB1D1

Departure

Time N/A
Airport Los Angeles International Airport (KLAX)

Arrival

Time 2026-05-05 00:42
Airport Seattle–Tacoma International Airport (KSEA)
Time Latitude Longitude Altitude Speed Heading
2026-05-05 00:42 47.43805 -122.30936 433 ft 9 kts 90°
2026-05-05 00:42 47.43805 -122.30836 433 ft 9 kts 90°
2026-05-05 00:43 47.43805 -122.30740 433 ft 8 kts 90°
2026-05-05 00:43 47.43814 -122.30665 433 ft 6 kts 54°
2026-05-05 00:43 47.43866 -122.30639 433 ft 9 kts
2026-05-05 00:43 47.43940 -122.30640 433 ft 11 kts 360°
2026-05-05 00:44 47.44030 -122.30639 433 ft 14 kts
2026-05-05 00:44 47.44138 -122.30637 433 ft 16 kts
2026-05-05 00:44 47.44263 -122.30637 433 ft 18 kts
2026-05-05 00:44 47.44399 -122.30637 433 ft 20 kts
2026-05-05 00:45 47.44514 -122.30636 433 ft 13 kts
2026-05-05 00:45 47.44616 -122.30635 433 ft 15 kts
2026-05-05 00:45 47.44730 -122.30632 433 ft 12 kts
2026-05-05 00:45 47.44828 -122.30630 433 ft 15 kts 360°
2026-05-05 00:46 47.44896 -122.30630 433 ft 6 kts
2026-05-05 00:46 47.44940 -122.30630 433 ft 6 kts
2026-05-05 00:46 47.44978 -122.30617 433 ft 5 kts 30°
2026-05-05 00:46 47.44999 -122.30579 433 ft 4 kts 61°
2026-05-05 00:47 47.45017 -122.30540 433 ft 4 kts 49°
2026-05-05 00:47 47.45043 -122.30516 433 ft 4 kts 17°
2026-05-05 00:47 47.45073 -122.30512 433 ft 4 kts
2026-05-05 00:47 47.45103 -122.30509 433 ft 4 kts
2026-05-05 00:48 47.45137 -122.30509 433 ft 5 kts 359°
2026-05-05 00:48 47.45172 -122.30509 433 ft 4 kts
2026-05-05 00:48 47.45202 -122.30508 433 ft 2 kts
2026-05-05 00:48 47.45215 -122.30496 433 ft 1 kts 52°
2026-05-05 00:49 47.45220 -122.30466 433 ft 5 kts 88°
2026-05-05 00:49 47.45219 -122.30418 433 ft 3 kts 90°
2026-05-05 00:49 47.45219 -122.30388 433 ft 2 kts 90°
2026-05-05 00:49 47.45219 -122.30370 433 ft 0 kts 90°